AD7L Weather Reports


Display with metric or nautical units.
time (UTC)temp
F
wind
direction
speed
MPH
gust
MPH
rain 1hr
in
rain 24hr
in
rain mn
in
humidity
%
barometer
mb
20260507050704 52 54 1.0 3.0 0.00 0.00 0.00 86 1021.8
20260507045704 53 54 1.0 3.0 0.00 0.00 0.00 85 1021.8
20260507044704 53 54 1.0 3.0 0.00 0.00 0.00 85 1021.9
20260507043704 53 54 2.0 3.0 0.00 0.00 0.00 84 1021.8
20260507042704 54 53 1.0 3.0 0.00 0.00 0.00 84 1021.8
20260507041704 54 46 1.0 3.0 0.00 0.00 0.00 83 1021.8
20260507035704 55 50 1.0 3.0 0.00 0.00 0.00 83 1021.6
20260507034704 56 56 0.0 3.0 0.00 0.00 0.00 83 1021.5
20260507033703 57 255 0.0 1.0 0.00 0.00 0.00 85 1021.4
20260507032704 58 255 0.0 2.0 0.00 0.00 0.00 84 1021.3
20260507031704 58 255 0.0 1.0 0.00 0.00 0.00 84 1021.3
20260507030704 58 255 0.0 1.0 0.00 0.00 0.00 83 1021.2
20260507025704 59 255 0.0 1.0 0.00 0.00 0.00 82 1021.2
20260507024704 59 255 0.0 1.0 0.00 0.00 0.00 82 1021.1
20260507023703 60 255 0.0 2.0 0.00 0.00 0.00 81 1021.2
20260507022704 61 255 1.0 1.0 0.00 0.00 0.00 80 1021.0
20260507021704 61 255 0.0 2.0 0.00 0.00 0.00 79 1021.1
20260507014704 63 255 0.0 2.0 0.00 0.00 0.00 78 1021.2
20260507013704 63 255 0.0 2.0 0.00 0.00 0.00 77 1021.3
20260507012704 64 255 0.0 1.0 0.00 0.00 0.00 77 1021.1
20260507011704 65 255 0.0 2.0 0.00 0.00 0.00 76 1021.2
20260507010705 66 255 1.0 2.0 0.00 0.00 0.00 75 1021.3
20260507004704 67 255 0.0 2.0 0.00 0.00 0.00 68 1021.1
20260507003703 68 255 0.0 1.0 0.00 0.00 0.00 73 1021.2
20260507001704 69 255 0.0 0.0 0.00 0.00 0.00 70 1021.2
20260507000704 69 255 0.0 0.0 0.00 0.00 0.00 70 1021.2
20260506235703 69 255 0.0 0.0 0.00 0.00 0.00 70 1021.2
20260506233704 70 255 0.0 1.0 0.00 0.00 0.00 69 1021.2
20260506232704 71 255 0.0 1.0 0.00 0.00 0.00 68 1021.2
20260506231704 71 255 0.0 0.0 0.00 0.00 0.00 68 1021.2
20260506230704 71 255 0.0 2.0 0.00 0.00 0.00 68 1021.4
20260506225704 71 255 0.0 1.0 0.00 0.00 0.00 68 1021.3
20260506224705 71 255 0.0 1.0 0.00 0.00 0.00 68 1021.4
20260506223704 71 255 0.0 2.0 0.00 0.00 0.00 70 1021.5
20260506220704 70 180 1.0 5.0 0.00 0.00 0.00 70 1021.5
20260506215704 69 250 0.0 7.0 0.00 0.00 0.00 67 1021.5
20260506213704 68 202 2.0 9.0 0.00 0.00 0.00 73 1021.6
20260506212703 68 210 0.0 6.0 0.00 0.00 0.00 74 1021.4
20260506211704 67 251 1.0 3.0 0.00 0.00 0.00 76 1021.7
20260506205704 66 200 0.0 6.0 0.00 0.00 0.00 75 1021.8
20260506203704 66 207 1.0 5.0 0.00 0.00 0.00 75 1021.8
20260506201704 67 232 1.0 6.0 0.00 0.00 0.00 74 1021.6
20260506200704 65 240 1.0 3.0 0.00 0.00 0.00 77 1021.8
20260506195704 64 194 2.0 9.0 0.00 0.00 0.00 58 1021.9
20260506194704 63 202 1.0 9.0 0.00 0.00 0.00 81 1021.9
20260506192704 62 199 3.0 5.0 0.00 0.00 0.00 81 1022.0
20260506191704 61 208 0.0 7.0 0.00 0.00 0.00 83 1022.1
20260506190704 62 193 1.0 5.0 0.00 0.00 0.00 81 1021.9
20260506185704 61 243 0.0 5.0 0.00 0.00 0.00 85 1021.9
20260506184703 60 215 0.0 3.0 0.00 0.00 0.00 84 1021.9
20260506183704 59 217 0.0 5.0 0.00 0.00 0.00 87 1022.1
20260506182704 57 194 1.0 6.0 0.00 0.00 0.00 87 1021.6
20260506181704 57 217 0.0 2.0 0.00 0.00 0.00 89 1021.7
20260506180704 57 174 0.0 2.0 0.00 0.00 0.00 89 1021.9
20260506175704 57 219 0.0 6.0 0.00 0.00 0.00 89 1021.8
20260506174703 56 203 0.0 3.0 0.00 0.00 0.00 91 1021.8
20260506172704 56 183 0.0 3.0 0.00 0.00 0.00 90 1021.5
20260506171703 56 206 0.0 5.0 0.00 0.00 0.00 89 1021.5
20260506170707 56 190 0.0 5.0 0.00 0.00 0.00 90 1021.5
20260506165704 55 211 1.0 3.0 0.00 0.00 0.00 90 1021.6
20260506164703 55 212 0.0 1.0 0.00 0.00 0.00 92 1021.8
20260506163704 55 212 0.0 2.0 0.00 0.00 0.00 92 1021.7
20260506161703 54 212 0.0 1.0 0.00 0.00 0.00 93 1021.6
20260506160705 54 212 1.0 3.0 0.00 0.00 0.00 92 1021.5
20260506155704 54 205 0.0 1.0 0.00 0.00 0.00 92 1021.1
20260506154704 54 205 0.0 1.0 0.00 0.00 0.00 92 1021.1
20260506153704 54 205 0.0 0.0 0.00 0.00 0.00 93 1020.9
20260506152704 54 205 0.0 1.0 0.00 0.00 0.00 92 1020.7
20260506151704 53 205 0.0 1.0 0.00 0.00 0.00 94 1021.1
20260506150704 53 205 0.0 0.0 0.00 0.00 0.00 94 1021.4
20260506145704 53 205 0.0 0.0 0.00 0.00 0.00 98 1021.3
20260506143704 53 205 0.0 0.0 0.00 0.00 0.00 94 1021.4
20260506142704 53 205 0.0 0.0 0.00 0.00 0.00 94 1021.2
20260506141704 53 205 0.0 0.0 0.00 0.00 0.00 94 1020.9
20260506140704 53 205 0.0 0.0 0.00 0.00 0.00 95 1020.7
20260506135704 53 205 0.0 0.0 0.00 0.00 0.00 95 1020.4
20260506134704 53 205 0.0 0.0 0.00 0.00 0.00 95 1020.3
20260506133703 53 205 0.0 0.0 0.00 0.00 0.00 95 1020.4
20260506132704 53 205 0.0 0.0 0.00 0.00 0.00 95 1020.4
20260506130704 53 205 0.0 0.0 0.00 0.00 0.00 94 1020.2
20260506125704 53 205 0.0 0.0 0.00 0.00 0.00 94 1020.0
20260506124704 53 205 0.0 0.0 0.00 0.00 0.00 94 1020.0
20260506123704 54 205 0.0 0.0 0.00 0.00 0.00 94 1020.0
20260506122704 54 205 0.0 0.0 0.00 0.00 0.00 94 1019.9
20260506121704 54 205 0.0 0.0 0.00 0.00 0.00 94 1019.9
20260506120704 54 205 0.0 0.0 0.00 0.00 0.00 93 1020.1
20260506115703 54 205 0.0 0.0 0.00 0.00 0.00 93 1020.0
20260506114703 55 205 0.0 0.0 0.00 0.00 0.00 93 1019.9
20260506113703 55 205 0.0 0.0 0.00 0.00 0.00 93 1019.8
20260506111704 55 205 0.0 0.0 0.00 0.00 0.00 91 1019.7
20260506110704 55 205 0.0 0.0 0.00 0.00 0.00 90 1019.6
20260506105704 55 205 0.0 0.0 0.00 0.00 0.00 90 1019.5
20260506104704 55 205 0.0 0.0 0.00 0.00 0.00 89 1019.3
20260506103704 55 205 0.0 0.0 0.00 0.00 0.00 89 1019.2
20260506102703 55 205 0.0 0.0 0.00 0.00 0.00 89 1019.1
20260506101703 55 205 0.0 1.0 0.00 0.00 0.00 89 1019.0
20260506095704 55 205 0.0 0.0 0.00 0.00 0.00 89 1018.9
20260506093704 55 205 0.0 0.0 0.00 0.00 0.00 89 1018.8
20260506092703 55 205 0.0 0.0 0.00 0.00 0.00 89 1018.7
20260506091703 55 205 0.0 0.0 0.00 0.00 0.00 89 1018.6
20260506085704 55 205 0.0 0.0 0.00 0.00 0.00 88 1018.8
20260506084703 55 205 0.0 0.0 0.00 0.00 0.00 88 1018.7
20260506082703 56 205 0.0 0.0 0.00 0.00 0.00 88 1018.7
20260506081704 56 205 0.0 0.0 0.00 0.00 0.00 88 1018.7
20260506080705 56 205 0.0 1.0 0.00 0.00 0.00 88 1018.7
20260506072704 55 205 0.0 1.0 0.00 0.00 0.00 88 1018.5
20260506070704 56 205 0.0 1.0 0.00 0.00 0.00 88 1018.3
20260506061704 56 216 0.0 2.0 0.00 0.00 0.00 88 1018.2